{"data":{"norad_id":48987,"epoch":"2026-05-25T05:09:36.781056Z","epoch_age_seconds":46575,"freshness":"FRESH","line1":"1 48987U 21060W   26145.21500904 -.00000057  00000+0 -18375-3 0  9994","line2":"2 48987  87.9093 233.3469 0002223 100.6456 259.4925 13.16593939236607","mean_motion":13.16593939,"eccentricity":0.0002223,"inclination_deg":87.9093,"raan_deg":233.3469,"arg_perigee_deg":100.6456,"mean_anomaly_deg":259.4925,"bstar":-0.00018375,"rev_number":23660,"period_min":109.37312996395,"perigee_km":1196.0737655426,"apogee_km":1199.4420084094,"semimajor_km":7575.894886976,"source":"CELESTRAK","updated_at":"2026-05-25T13:38:22.475895Z"}}